Back to catalog

STARLINK-5299

AliveCommunicationsVLEO
NORAD 55277·PAYLOAD·🇺🇸 United States

Launched Jan 19, 2023 from Vandenberg Space Force Base

Loading…

Next Passes (next 24 hours)

TLE

FreshSource: CelesTrak SupGP

Epoch: Sep 14, 2026, 21:29 UTC

1 55277C 23010J   26257.89562500  .00049046  00000+0  41126-2 0  2574
2 55277  69.9988 287.4318 0003478 268.1434 189.6127 14.98282997    14

Track STARLINK-5299 in real time with AllMySat

Download on the App Store